Location: Barrio de Canyet
(41.4665°N, 2.2381°E)
Time: 03:45:08
(UTC+00:00)

Cosmos 2228 - Pass Details

Date: 09 April 2020
Orbit: 588 x 619 km, 82.5° (Epoch: 31 May)

Event Time Altitude Azimuth Distance (km) Brightness Sun altitude
Rises 19:04:47 0° 180° (S) 2,829 6.3 -8.0°
Reaches altitude 10° 19:06:59 10° 177° (S) 1,936 5.4 -8.4°
Maximum altitude 19:11:14 68° 95° (E) 656 3.0 -9.1°
Drops below altitude 10° 19:15:33 10° 13° (NNE) 1,971 5.7 -9.9°
Sets 19:17:48 0° 11° (N) 2,885 6.6 -10.3°
